Hourly Data Report for November 27, 2017

All times are specified in Local Standard Time (LST). Add 1 hour to adjust for Daylight Saving Time where and when it is observed.

GREENWOOD A
NOVA SCOTIA

44°59'00.000" N
64°55'00.000" W
28.00 m
8202000
71397
YZX

Download Data

Hourly Data (November 2017)
Hourly Data Report for November 27, 2017
Temp Definition
°C
Dew Point Temp Definition
°C
Rel Hum Definition
%
Wind Dir Definition
10's deg

Wind Spd Definition
km/h
Visibility Definition
km
Stn Press Definition
kPa
Hmdx Definition


Wind Chill Definition


Weather Definition


TIME
00:00 -0.5 -3.5 80 29 28 24.1 100.17   -7 Cloudy
01:00 -0.7 -3.8 79 28 22 24.1 100.30   -6 Cloudy
02:00 -0.7 -3.8 79 27 37 24.1 100.32   -8 Cloudy
03:00 -0.5 -5.0 72 27 32 24.1 100.39   -7 Cloudy
04:00 -1.0 -5.4 72 27 26 24.1 100.36   -7 Cloudy
05:00 -2.0 -6.7 70 28 26 24.1 100.36   -9 Cloudy
06:00 -0.3 -5.4 68 27 15 24.1 100.38   -5 Cloudy
07:00 -1.8 -3.4 89 21 7 2.4 100.41   -4 Snow Showers
08:00 -2.0 -3.1 92 25 4 1.0 100.47   -3 Snow Showers
09:00 -1.7 -2.2 96 27 19 1.0 100.51   -7 Snow Showers
10:00 -1.0 -3.3 84 28 19 12.9 100.53   -6 Snow Showers
11:00 -0.7 -3.2 83 29 28 19.3 100.51   -7 Snow Showers
12:00 -0.4 -3.1 82 28 32 24.1 100.47   -7 Mostly Cloudy
13:00 0.1 -3.3 78 27 33 24.1 100.44     Mostly Cloudy
14:00 0.3 -3.6 75 28 30 24.1 100.43     Mostly Cloudy
15:00 0.8 -3.9 71 29 28 24.1 100.48     Mostly Cloudy
16:00 0.8 -3.9 71 30 24 24.1 100.61     Snow Showers
17:00 -0.4 -3.1 82 30 22 24.1 100.76   -6 Mostly Cloudy
18:00 -0.4 -3.1 82 31 26 24.1 100.90   -7 Mostly Cloudy
19:00 -1.0 -7.0 64 31 26 24.1 100.99   -7 Cloudy
20:00 -2.0 -8.5 61 31 17 24.1 101.12   -7 Mostly Cloudy
21:00 -2.5 -11.3 51 30 26 24.1 101.27   -9 Mostly Cloudy
22:00 -3.4 -9.0 65 31 28 24.1 101.40   -11 Mostly Cloudy
23:00 -4.5 -12.3 54 31 22 24.1 101.48   -11 Mostly Cloudy

Notes on Data Quality.

Legend

  • E = Estimated
  • M = Missing
  • NA = Not Available
  • ‡ = Partner data that is not subject to review by the National Climate Archives
Date modified: